Regional Weather Roundup
Issued by NWS State College, PA

Home | Current Version | Previous Version | Text Only | Print | Product List | Glossary Off
Versions: 1 2 3 4 5 6 7 8 9 10 11 12 13 14 15 16 17 18 19 20 21 22 23 24 25 26 27 28 29 30 31 32 33 34 35 36 37 38 39 40 41 42 43 44 45 46 47 48 49 50

000
ASUS41 KCTP 211203
RWRCTP

REGIONAL WEATHER ROUNDUP
NATIONAL WEATHER SERVICE STATE COLLEGE PA
800 AM EDT SAT APR 21 2018

Note: "fair" indicates few or no clouds below 12,000 feet with no
significant weather and/or obstructions to visibility.

* = STATION THAT DOES NOT REPORT PRECIPITATION /E.G. RAIN...SNOW...ETC/
    THUNDER OR FOG.

PAZ002>004-007>009-013>016-020>023-029>032-211300-
WESTERN PENNSYLVANIA

CITY           SKY/WX    TMP DP  RH WIND       PRES   REMARKS
ERIE           FAIR      32  27  81 S5        30.50R
MEADVILLE      FAIR      31  25  78 CALM      30.47R
FRANKLIN*      FAIR      28  24  85 CALM      30.47R
NEW CASTLE     FAIR      31  28  89 CALM      30.50R
BEAVER COUNTY  NOT AVBL
BUTLER*        FAIR      32  28  85 CALM      30.48R
PITTSBURGH INT FAIR      32  25  75 CALM      30.47R
PITTSBURGH     FAIR      36  25  64 CALM      30.46R
INDIANA*       SUNNY     30  27  86 CALM      30.50R
LATROBE        MOSUNNY   30  27  86 CALM      30.48R
WASHINGTON CO* FAIR      30  27  88 CALM      30.49R
$$

PAZ004>006-010>012-017>019-024>028-033>037-041-042-045-046-049>053-211300-
CENTRAL PENNSYLVANIA

CITY           SKY/WX    TMP DP  RH WIND       PRES   REMARKS
BRADFORD       FAIR      29  25  85 CALM      30.43R
DUBOIS         FAIR      30  25  81 CALM      30.43R
CLEARFIELD     FAIR      30  26  85 CALM      30.45R
JOHNSTOWN      FAIR      32  23  69 SW5       30.41R
ALTOONA        FAIR      34  25  69 S3        30.44R
STATE COLLEGE  SUNNY     32  25  74 CALM      30.45R
WILLIAMSPORT   FAIR      34  27  75 W8        30.46R
SELINSGROVE    FAIR      33  27  78 CALM      30.47R
FT INDIANTOWN  FAIR      38  33  82 CALM      30.45R
CAPITAL CITY   FAIR      40  29  64 W5        30.47R
HARRISBURG     PTSUNNY   40  29  64 NW5       30.46R
YORK           FAIR      33  30  88 CALM      30.46R
$$

PAZ038>040-043-044-047-048-054-055-060>062-067>071-211300-
EASTERN PENNSYLVANIA

CITY           SKY/WX    TMP DP  RH WIND       PRES   REMARKS
SCRANTON       FAIR      34  27  75 CALM      30.42S
MOUNT POCONO   FAIR      33  24  69 NW9       30.36S
ALLENTOWN      FAIR      39  26  59 SW6       30.44R
QUAKERTOWN*    SUNNY     41  27  56 VRB6      30.44R
READING        FAIR      38  31  76 CALM      30.45R
LANCASTER      FAIR      36  29  75 W3        30.45S
COATESVILLE    FAIR      39  27  60 NW7       30.45S
POTTSTOWN      FAIR      38  27  64 NW3       30.46R
BLUE BELL      FAIR      37  28  70 W3        30.46S
DOYLESTOWN     FAIR      41  26  55 NW7       30.43R
WILLOW GROVE   NOT AVBL
NORTH PHILA    FAIR      44  27  51 NW12      30.45S
PHILADELPHIA   PTSUNNY   42  26  53 NW3       30.46R
$$



USA.gov is the U.S. government's official web portal to all federal, state and local government web resources and services.